Temperature
16 18 19 19 19 19 18 18 18 19 17 17 18 18 18 17 17 17 16 15 15 13 13 15 16 16 16 16 16 15 15 14 13 13 12 11 11 10 10 10 9 9 9 8
17 18 19 17 16 16 17 17 18 18 16 16 17 18 18 17 17 16 16 15 14 14 13 14 15 15 16 16 15 15 14 14 13 12 12 11 11 10 10 10 10 9 9 9
18 18 16 16 16 16 17 17 18 18 17 16 16 18 18 17 16 15 15 14 14 13 13 14 14 15 15 15 14 14 14 13 13 12 12 12 11 11 11 10 10 10 9 9
17 17 15 16 17 17 17 17 16 16 17 19 17 19 19 18 17 17 16 15 14 13 13 13 14 14 14 14 14 13 13 13 12 12 12 11 11 11 10 10 10 10 9 9
17 15 15 16 17 16 17 15 15 15 16 17 17 18 20 17 17 17 17 15 13 12 12 13 13 13 13 13 13 13 12 12 12 12 11 11 11 10 10 10 10 9 9 9
17 16 16 17 15 15 15 15 14 15 16 17 18 18 19 18 18 18 17 15 13 12 12 12 13 13 13 12 12 12 12 12 11 11 11 10 10 10 9 9 9 9 8 8
16 16 15 15 15 14 15 17 18 18 18 19 16 16 19 18 18 18 17 15 13 12 12 11 12 12 12 12 12 11 11 11 11 10 10 10 9 9 8 8 8 8 7 7
17 17 16 15 17 17 16 17 18 18 19 19 15 17 19 16 15 15 15 14 13 12 11 11 11 11 11 11 11 11 11 10 10 10 9 9 8 8 7 7 7 7 6 6
17 17 14 14 15 17 16 17 17 18 16 17 18 18 18 15 14 14 14 13 12 12 11 11 11 11 11 11 11 10 10 10 9 9 8 8 8 7 7 6 6 6 6 6
18 17 15 14 14 13 15 16 16 17 17 17 18 18 19 17 16 15 14 13 12 11 10 10 10 10 10 10 10 10 9 9 9 8 8 7 7 6 6 6 6 5 5 5
17 17 15 14 15 16 14 15 16 17 17 17 18 19 18 17 16 15 15 13 12 11 10 10 10 10 10 10 9 9 9 8 8 7 7 6 6 6 5 5 5 5 5 4
16 17 17 16 14 14 16 16 16 17 16 16 17 18 16 16 15 15 14 12 11 10 10 9 9 9 9 9 9 8 8 7 7 6 6 6 5 5 5 5 4 4 4 4
14 16 16 15 14 13 14 14 15 16 16 16 16 18 14 14 14 13 13 11 10 9 9 9 9 9 8 8 8 7 7 6 6 6 5 5 5 4 4 4 4 4 3 3
15 16 17 18 17 16 14 13 13 15 16 16 16 18 16 14 14 13 11 11 10 9 8 8 8 8 8 7 7 6 6 6 5 5 4 4 4 4 4 3 3 3 3 2
14 16 16 16 14 15 15 15 13 14 16 16 17 17 17 16 15 13 11 10 9 8 8 8 7 7 7 6 6 6 5 5 5 4 4 4 3 3 3 3 3 2 2 2
14 15 14 14 12 13 13 14 14 14 15 15 16 16 16 14 13 12 10 9 8 8 7 7 7 7 6 6 5 5 4 4 4 4 4 3 3 3 3 2 2 2 1 1
13 14 14 15 12 12 13 15 14 14 14 15 15 16 14 11 11 10 9 8 7 7 7 7 6 6 5 5 4 4 4 4 4 3 3 3 2 2 2 1 1 1 0 -0
13 13 14 13 12 11 16 13 13 14 14 13 13 12 11 11 9 8 8 8 7 7 6 6 6 5 4 4 4 4 3 3 3 3 3 2 2 1 1 0 0 -0 -1 -1
12 13 12 12 13 14 14 12 12 12 13 12 12 11 9 7 7 7 6 6 6 6 6 5 5 4 4 4 3 3 3 3 2 2 2 1 1 0 -0 -0 -1 -1 -2 -2
8 11 12 11 11 12 15 11 10 12 13 11 10 10 8 8 10 10 6 6 6 6 5 5 4 4 3 3 3 3 2 2 2 1 1 1 0 -0 -1 -1 -2 -2 -3 -3
9 10 11 11 11 13 13 9 10 12 14 10 9 8 8 9 9 8 6 6 5 5 4 4 4 3 3 3 2 2 2 1 1 1 0 0 -0 -1 -1 -2 -2 -3 -3 -4
10 10 10 11 10 11 10 9 11 12 9 8 8 8 7 7 7 6 6 5 5 4 4 3 3 3 3 2 2 1 1 1 0 0 -0 -0 -1 -1 -2 -3 -3 -3 -4 -5
10 12 12 12 12 10 9 10 9 9 8 8 7 7 7 6 6 5 5 4 4 4 3 3 3 3 2 2 1 1 1 0 -0 -0 -1 -1 -2 -2 -3 -3 -4 -4 -5 -5
9 8 9 9 10 8 7 7 8 8 8 8 8 7 7 6 5 5 4 4 4 3 3 2 2 2 2 2 1 1 0 -0 -1 -1 -1 -2 -3 -3 -3 -4 -5 -5 -6 -6
10 8 8 9 9 7 6 7 7 7 7 7 7 6 6 5 5 4 4 3 3 3 2 2 2 1 1 1 1 0 -0 -1 -1 -2 -2 -3 -3 -4 -4 -5 -5 -6 -6 -6
8 8 9 11 9 9 8 7 7 7 7 6 6 5 5 5 4 4 3 3 3 2 2 2 1 1 1 0 0 -0 -1 -1 -2 -2 -3 -3 -4 -4 -5 -5 -6 -6 -6 -6
Wind_Speed
3 6 9 9 9 6 5 7 9 8 3 5 7 8 5 0 4 6 7 9 10 11 11 12 12 11 10 9 7 6 6 7 7 6 6 6 7 7 8 11 14 15 16 16
5 11 10 4 4 6 7 9 10 6 1 4 7 7 2 4 5 5 7 8 9 11 12 12 12 12 12 10 8 6 5 5 6 5 5 4 5 6 7 9 12 14 15 16
13 3 4 6 6 7 8 10 9 6 3 3 5 4 6 6 6 6 6 7 9 9 11 11 12 12 12 11 8 6 5 4 4 5 4 3 3 4 5 7 7 11 14 15
9 4 5 7 8 9 8 7 7 5 5 3 3 3 8 11 10 9 8 8 8 9 10 10 11 12 11 10 8 8 6 5 4 4 4 5 4 5 5 5 6 7 10 12
7 6 7 9 8 9 3 3 3 3 5 6 5 6 7 12 14 13 11 9 8 8 9 10 10 10 9 9 8 8 7 6 4 3 3 4 5 5 5 6 7 7 7 9
6 4 5 4 1 5 6 5 3 2 3 5 4 7 5 11 17 17 13 11 9 9 9 9 9 9 9 8 8 7 8 7 4 2 1 2 4 5 6 7 7 6 6 6
8 7 5 5 5 5 6 5 4 4 5 4 3 5 5 5 8 14 15 13 11 10 9 9 9 8 8 8 7 7 7 6 5 3 2 2 3 5 6 7 7 7 6 6
8 7 9 8 9 8 8 7 6 4 3 1 4 6 1 4 3 6 10 12 11 10 9 8 8 7 7 7 6 6 6 5 5 4 3 3 3 3 4 6 6 7 7 8
8 4 3 3 2 6 7 6 2 2 2 5 5 4 4 4 5 8 11 12 11 10 9 8 8 7 6 5 5 5 4 4 4 4 4 4 4 4 5 7 7 7 8 8
7 4 4 4 4 2 1 5 5 5 4 5 5 5 4 8 9 10 13 13 11 10 9 8 7 6 5 4 4 4 4 4 4 4 4 4 5 6 7 8 9 10 10 10
7 6 5 5 8 9 7 5 5 4 3 4 5 3 1 6 8 10 12 12 11 10 10 8 6 5 4 4 3 3 3 3 4 4 5 6 6 7 8 8 10 10 11 12
8 6 5 5 1 2 7 7 9 6 6 5 5 4 3 4 6 8 10 9 9 9 8 7 6 5 3 3 2 3 3 3 4 5 6 7 7 8 9 10 11 12 13 13
9 7 6 4 4 4 5 6 7 5 4 7 7 6 4 4 6 7 9 9 9 9 8 7 5 3 2 1 2 3 3 4 5 6 7 8 9 10 11 12 13 13 14 15
6 7 9 8 2 8 7 8 10 10 8 10 13 13 7 8 8 8 8 9 10 9 7 6 4 2 1 2 2 3 4 5 6 7 8 10 11 11 12 13 14 14 15 16
6 7 7 5 1 5 8 10 14 16 16 14 15 17 15 11 11 10 9 10 9 8 6 4 2 0 1 2 3 4 5 6 7 9 10 11 11 12 13 14 15 15 16 16
6 5 5 4 3 5 7 12 15 17 18 20 21 20 11 4 7 9 10 10 9 7 5 3 1 1 2 3 5 5 6 7 8 10 11 11 12 13 14 15 16 17 17 17
8 8 6 6 3 3 10 14 18 13 13 14 18 14 6 7 9 10 10 10 8 6 4 3 1 1 3 4 5 7 8 9 9 10 11 12 13 14 15 16 17 17 18 18
8 7 5 3 4 10 7 2 7 13 14 15 12 6 7 7 7 6 8 9 7 6 4 2 2 2 3 4 6 7 8 9 10 11 12 12 13 14 16 17 17 18 17 17
5 8 5 5 8 11 7 5 7 9 9 11 12 10 8 8 7 6 6 6 5 4 3 2 2 3 4 5 7 8 9 10 11 12 13 13 14 15 16 18 18 18 18 18
2 4 6 6 7 9 5 4 5 3 8 7 11 12 12 11 8 7 9 6 5 4 2 2 2 4 5 6 7 9 11 12 12 13 14 14 15 16 17 18 19 18 17 18
6 6 11 12 11 10 2 7 8 7 4 7 11 13 14 10 4 6 9 6 4 3 2 2 4 5 7 7 8 10 12 13 13 14 15 15 15 16 17 17 17 17 17 18
11 10 10 9 10 10 7 10 9 4 4 8 10 11 11 7 6 7 6 5 4 3 3 4 5 7 8 8 9 12 13 14 14 14 15 16 16 15 15 17 17 17 17 17
10 9 7 10 8 0 7 6 2 3 6 7 9 9 9 8 7 6 5 4 3 4 4 5 7 9 10 10 10 13 14 14 14 15 16 17 17 16 15 16 17 16 15 14
7 4 5 7 7 4 5 5 4 5 6 7 8 9 8 7 7 6 4 4 4 4 5 6 8 10 12 12 12 13 14 14 15 16 17 16 16 16 16 14 13 13 14 14
7 9 7 8 5 3 6 8 8 7 7 8 8 7 7 7 6 5 4 4 5 5 6 7 9 11 14 14 14 14 14 14 15 16 16 16 15 16 15 14 13 15 15 15
7 8 9 8 7 7 6 8 11 10 9 10 9 7 6 6 6 5 5 5 6 7 8 9 11 13 14 15 16 15 15 14 15 15 15 13 13 14 14 15 15 16 18 24
Wind_Direction
166 223 241 246 239 264 266 266 275 283 306 288 278 286 294 219 143 120 102 86 74 66 61 59 63 73 83 90 105 128 155 174 182 187 198 211 225 231 235 239 242 242 242 242
208 243 257 250 204 219 238 259 271 277 231 277 291 285 245 160 146 129 114 98 89 84 74 66 68 71 75 80 88 102 127 156 176 186 195 213 231 242 246 245 247 246 246 246
231 240 143 169 186 209 232 246 265 278 288 229 288 230 173 156 146 134 120 109 98 89 85 78 73 72 74 73 75 86 103 132 166 181 187 195 223 244 245 247 250 250 249 248
238 220 185 217 228 225 251 240 243 253 277 264 279 243 183 175 171 162 146 128 112 103 96 88 84 77 74 73 77 84 93 107 135 171 197 214 234 252 267 274 269 269 260 256
219 193 196 220 232 209 221 114 184 234 255 270 228 242 190 180 188 181 164 145 129 118 109 100 92 88 83 80 81 84 90 92 107 153 201 235 257 275 288 291 285 284 274 263
242 195 215 217 122 172 140 129 123 179 226 247 212 224 210 191 200 185 173 160 148 136 124 114 108 103 94 88 84 86 88 85 87 104 160 254 283 294 300 301 301 298 290 278
229 223 207 175 151 154 184 216 239 224 218 231 150 235 247 172 191 190 179 169 160 151 143 134 128 119 107 95 87 85 83 76 69 65 47 347 311 305 303 307 307 304 300 294
215 215 193 195 211 197 198 224 245 267 261 256 195 239 221 125 162 185 183 171 163 162 155 145 137 129 117 103 92 84 76 68 55 44 28 5 339 316 310 308 303 299 296 296
213 203 118 167 191 191 177 206 257 268 284 273 245 254 254 155 176 179 178 174 173 169 163 154 145 137 124 107 88 74 65 55 40 25 7 354 340 323 313 308 302 298 296 297
210 192 153 139 135 54 253 157 165 209 245 255 254 246 226 184 179 173 176 179 173 168 165 158 149 136 119 100 86 69 53 40 23 7 355 334 326 321 313 307 305 302 301 299
203 201 162 180 206 196 164 181 201 203 252 258 266 250 161 190 176 175 176 175 172 169 165 160 149 134 118 101 81 57 38 21 6 352 337 327 324 320 313 307 305 304 302 300
191 206 200 187 113 286 217 207 194 217 224 231 266 271 108 181 175 176 170 166 166 163 157 151 143 137 125 96 59 30 12 359 349 339 328 324 320 317 312 310 308 306 302 300
163 189 186 179 185 187 208 205 209 221 231 224 241 253 123 160 169 174 173 167 163 158 152 147 144 139 116 61 16 355 346 339 333 327 320 317 315 314 312 310 308 305 302 299
176 200 224 238 193 170 191 198 198 202 226 237 239 255 221 197 190 181 175 170 164 158 153 149 144 132 74 0 339 332 331 329 323 317 314 312 312 310 308 306 304 302 300 297
195 223 230 250 175 183 210 207 200 213 232 247 258 259 258 234 215 201 183 168 163 159 156 153 153 143 340 335 328 325 320 318 315 310 309 308 308 306 304 302 301 301 299 296
198 215 201 225 205 221 243 237 224 229 240 248 259 265 268 230 200 192 181 172 170 167 167 167 175 263 317 323 320 314 312 312 308 304 303 305 305 304 303 302 302 301 299 297
182 181 197 239 179 234 253 241 229 225 226 235 249 258 203 185 188 185 177 173 172 172 173 182 212 286 306 310 308 306 308 307 303 299 300 303 303 302 303 303 302 301 300 299
178 184 206 209 185 238 255 147 224 229 239 232 240 228 182 178 162 165 170 171 170 170 179 197 244 280 295 302 302 302 302 300 298 297 299 302 303 302 303 304 303 302 302 300
200 178 176 195 239 261 261 212 191 208 247 224 220 204 166 141 143 163 165 167 168 170 181 213 257 277 289 297 301 301 298 298 296 296 300 304 305 304 304 304 304 304 303 300
146 203 200 198 226 247 249 143 157 181 257 205 193 179 163 163 191 188 168 164 162 166 183 227 263 280 287 298 303 298 298 300 300 303 304 304 303 302 301 302 303 302 301 299
167 191 213 223 237 258 220 141 157 211 272 156 175 172 171 184 183 133 149 161 169 183 210 252 277 285 292 300 300 295 297 300 303 303 302 301 300 300 301 301 300 301 301 299
179 185 202 210 226 245 157 158 197 233 116 159 168 170 172 162 133 140 155 166 181 208 243 271 284 291 297 299 295 294 298 303 305 303 301 300 301 302 300 300 301 301 302 301
207 201 196 202 220 13 167 195 201 147 162 168 167 166 162 159 166 167 176 189 211 239 262 275 284 292 297 299 297 295 300 305 304 302 300 301 302 301 300 299 301 302 301 299
212 200 201 226 239 218 205 207 193 181 173 160 158 158 163 168 171 180 192 214 238 257 270 280 286 291 297 303 301 296 299 302 301 300 301 301 301 301 300 298 297 296 298 298
192 177 204 234 237 213 218 208 188 165 151 145 145 155 164 164 175 191 212 234 253 269 278 282 284 289 293 299 300 301 302 303 301 300 300 300 300 299 300 298 294 294 290 289
187 188 197 229 205 199 203 187 176 167 166 162 154 154 162 175 185 204 231 251 264 275 281 284 286 289 294 299 300 302 303 302 299 298 299 300 300 299 299 300 298 289 286 291
Height
1541 1540 1537 1535 1536 1536 1537 1537 1535 1532 1534 1534 1529 1527 1526 1528 1528 1528 1528 1527 1526 1525 1523 1521 1520 1520 1520 1521 1522 1523 1524 1525 1526 1528 1529 1530 1532 1533 1534 1534 1535 1535 1535 1535
1539 1535 1533 1536 1538 1540 1539 1537 1533 1531 1535 1534 1528 1526 1524 1526 1527 1528 1528 1528 1528 1527 1526 1524 1524 1523 1523 1523 1524 1524 1525 1525 1526 1527 1528 1529 1530 1531 1531 1531 1531 1531 1531 1530
1531 1532 1535 1536 1537 1538 1536 1534 1530 1531 1531 1533 1531 1522 1523 1525 1528 1529 1529 1529 1529 1528 1528 1527 1526 1526 1526 1526 1526 1526 1526 1527 1527 1528 1528 1529 1529 1529 1529 1529 1528 1527 1527 1526
1529 1531 1534 1534 1533 1533 1531 1530 1532 1534 1531 1524 1529 1520 1519 1521 1525 1527 1528 1529 1529 1529 1529 1528 1528 1528 1528 1528 1528 1528 1528 1528 1528 1528 1528 1528 1528 1528 1527 1526 1525 1524 1523 1521
1526 1530 1531 1530 1528 1530 1528 1532 1534 1533 1531 1528 1526 1522 1511 1519 1520 1522 1526 1528 1529 1530 1530 1529 1529 1529 1529 1529 1529 1530 1529 1529 1529 1529 1528 1528 1527 1527 1525 1524 1522 1521 1519 1517
1524 1527 1527 1526 1528 1530 1532 1533 1535 1534 1530 1526 1520 1520 1509 1512 1512 1517 1523 1527 1528 1529 1530 1530 1530 1530 1530 1531 1531 1530 1530 1530 1529 1528 1528 1527 1526 1524 1523 1521 1519 1517 1515 1513
1523 1523 1524 1525 1527 1531 1530 1528 1527 1525 1523 1517 1523 1522 1507 1506 1509 1513 1519 1524 1527 1528 1529 1529 1530 1530 1531 1531 1531 1531 1530 1529 1529 1527 1526 1525 1523 1522 1520 1517 1515 1513 1511 1509
1518 1516 1519 1520 1519 1521 1524 1523 1523 1522 1517 1514 1523 1517 1503 1509 1513 1515 1518 1522 1525 1526 1528 1528 1529 1530 1530 1530 1530 1530 1529 1528 1527 1526 1524 1522 1520 1518 1516 1514 1511 1509 1506 1503
1511 1513 1519 1520 1520 1519 1522 1521 1520 1520 1524 1520 1509 1507 1504 1509 1511 1514 1516 1520 1522 1524 1526 1527 1528 1528 1529 1529 1529 1528 1527 1526 1525 1523 1521 1519 1517 1515 1512 1510 1507 1504 1501 1498
1506 1511 1516 1520 1521 1523 1520 1518 1523 1521 1521 1517 1508 1505 1499 1503 1506 1510 1513 1516 1519 1522 1524 1525 1526 1527 1527 1527 1527 1526 1525 1524 1522 1520 1518 1515 1513 1510 1508 1505 1502 1499 1495 1492
1505 1507 1517 1518 1517 1514 1521 1522 1517 1516 1517 1515 1512 1501 1497 1498 1502 1506 1509 1513 1516 1519 1521 1523 1524 1524 1525 1525 1524 1523 1522 1520 1518 1516 1514 1511 1508 1506 1503 1499 1496 1493 1489 1485
1504 1503 1507 1511 1516 1516 1512 1511 1512 1515 1514 1515 1510 1503 1499 1500 1502 1505 1508 1512 1514 1517 1519 1520 1521 1522 1522 1522 1521 1520 1519 1517 1515 1512 1510 1507 1504 1501 1497 1494 1490 1486 1482 1478
1502 1503 1507 1511 1516 1517 1514 1513 1512 1511 1511 1512 1511 1501 1501 1502 1503 1505 1507 1510 1512 1514 1516 1518 1519 1520 1520 1519 1518 1517 1515 1513 1510 1508 1505 1502 1499 1496 1492 1488 1484 1480 1475 1470
1498 1496 1496 1496 1495 1501 1507 1510 1512 1510 1508 1504 1501 1493 1497 1499 1501 1504 1506 1508 1510 1512 1514 1515 1517 1517 1516 1516 1514 1513 1511 1509 1506 1504 1501 1497 1494 1490 1486 1481 1477 1472 1467 1462
1497 1494 1493 1495 1499 1499 1499 1501 1507 1505 1497 1497 1489 1488 1487 1492 1497 1500 1503 1506 1508 1510 1511 1513 1513 1514 1513 1512 1511 1509 1507 1504 1502 1499 1495 1492 1488 1484 1479 1474 1469 1464 1459 1453
1495 1494 1496 1498 1502 1502 1501 1497 1498 1499 1495 1491 1488 1486 1485 1491 1495 1497 1500 1503 1505 1507 1509 1510 1510 1510 1510 1508 1507 1505 1502 1500 1497 1493 1490 1486 1481 1477 1472 1467 1461 1456 1450 1444
1492 1494 1496 1493 1502 1502 1495 1486 1487 1489 1486 1486 1484 1481 1485 1490 1492 1495 1497 1500 1502 1504 1506 1507 1507 1507 1506 1504 1503 1500 1498 1495 1492 1488 1484 1479 1474 1469 1464 1459 1453 1447 1441 1436
1490 1490 1492 1495 1501 1503 1476 1481 1480 1481 1480 1481 1481 1482 1485 1488 1491 1494 1496 1498 1500 1502 1503 1503 1503 1503 1502 1500 1498 1496 1493 1490 1486 1482 1477 1473 1467 1462 1457 1451 1445 1439 1433 1427
1488 1488 1492 1495 1489 1480 1476 1478 1480 1480 1476 1476 1478 1481 1485 1488 1491 1493 1494 1496 1498 1499 1500 1500 1500 1499 1498 1496 1494 1491 1488 1484 1480 1475 1471 1466 1461 1455 1449 1443 1438 1431 1425 1418
1491 1489 1488 1493 1492 1485 1469 1475 1476 1479 1474 1472 1475 1478 1483 1487 1488 1489 1492 1493 1495 1496 1497 1497 1496 1495 1494 1492 1489 1485 1482 1478 1474 1469 1464 1459 1454 1448 1442 1436 1429 1423 1417 1410
1489 1488 1486 1484 1483 1470 1468 1474 1477 1478 1467 1471 1473 1476 1480 1482 1484 1487 1488 1490 1492 1493 1493 1493 1492 1491 1489 1487 1483 1480 1476 1472 1467 1462 1457 1452 1446 1441 1434 1428 1421 1415 1408 1401
1474 1478 1479 1478 1480 1474 1470 1473 1471 1466 1468 1469 1472 1475 1478 1481 1482 1484 1486 1488 1489 1490 1490 1489 1488 1487 1484 1481 1477 1473 1470 1465 1460 1455 1449 1444 1439 1433 1426 1420 1413 1407 1401 1393
1466 1463 1463 1465 1463 1464 1465 1465 1466 1467 1468 1469 1471 1474 1476 1479 1480 1482 1484 1485 1486 1486 1486 1485 1483 1481 1479 1476 1472 1467 1463 1458 1453 1447 1442 1436 1431 1425 1419 1412 1406 1399 1393 1387
1462 1464 1463 1463 1460 1462 1463 1463 1464 1465 1466 1468 1470 1472 1475 1476 1478 1480 1481 1482 1483 1483 1482 1480 1478 1475 1472 1469 1465 1461 1456 1451 1445 1439 1434 1428 1422 1416 1411 1405 1399 1392 1386 1380
1452 1459 1459 1458 1458 1460 1460 1460 1461 1463 1465 1467 1469 1471 1473 1474 1476 1477 1478 1479 1479 1478 1477 1475 1472 1469 1466 1462 1458 1454 1449 1443 1437 1432 1426 1421 1415 1409 1402 1397 1392 1385 1379 1375
1452 1452 1453 1450 1451 1454 1454 1456 1458 1461 1462 1465 1467 1469 1471 1472 1473 1475 1475 1475 1475 1474 1472 1469 1466 1463 1459 1455 1451 1447 1442 1436 1430 1424 1419 1413 1407 1401 1395 1388 1382 1376 1372 1366